Cairns, Australia

4:57 PM AEST on February 21, 2017 (GMT +1000)
Cairns International

Weather History for YBCS - November, 2012

Change the Weather History Date:

Sunday, November 11, 2012

  Actual Average Record
Temperature  
Mean Temperature 80 °F -  
Max Temperature 89 °F 87 °F 89 °F (2010)
Min Temperature 71 °F 73 °F 68 °F (2013)
Cooling Degree Days 15    
Growing Degree Days 30 (Base 50)    
Moisture  
Dew Point 67 °F    
Average Humidity 65    
Maximum Humidity 88    
Minimum Humidity 35    
Precipitation  
Precipitation 0.01 in 0.17 in - ()
Sea Level Pressure  
Sea Level Pressure 29.92 in    
Wind  
Wind Speed 8 mph ()    
Max Wind Speed 17 mph    
Max Gust Speed -    
Visibility 7.0 miles    
Events      
Averages and records for this station are not official NWS values.
T = Trace of Precipitation, MM = Missing Value Source: Averaged Metar Reports

Daily Weather History Graph

Daily Weather History Graph

Search for Another Location

Airport or City:

Trip Planner

Search our weather history database for the weather conditions in past years. The results will help you decide how hot, cold, wet, or windy it might be!

Date:

Astronomy

Nov. 11, 2012 Rise Set
Actual Time 5:35 AM AEST 6:26 PM AEST
Civil Twilight 5:12 AM AEST 6:49 PM AEST
Nautical Twilight 4:45 AM AEST 7:16 PM AEST
Astronomical Twilight 4:18 AM AEST 7:44 PM AEST
Moon 2:59 AM AEST (11/11) 3:41 PM AEST (11/11)
Length of Visible Light 13h 37m
Length of Day
12h 51m
Waning Crescent, 11% of the Moon is Illuminated
Nov 11
Waning Crescent
Nov 14
New
Nov 21
First Quarter
Nov 29
Full
Dec 7
Last Quarter

Hourly Weather History & Observations

Time (AEST) Temp. Heat Index Dew Point Humidity Pressure Visibility Wind Dir Wind Speed Gust Speed Precip Events Conditions
12:00 AM 76 °F - 69 °F 73% 29.92 in - SSE 4.6 mph - -   Overcast
12:00 AM 77.0 °F - 69.8 °F 78% 29.92 in 6.2 mi SSE 4.6 mph - N/A   Overcast
12:30 AM 77.0 °F - 69.8 °F 78% 29.89 in 6.2 mi South 5.8 mph - N/A   Mostly Cloudy
1:00 AM 75 °F - 69 °F 77% 29.91 in - South 6.9 mph - -  
1:00 AM 75.2 °F - 69.8 °F 83% 29.89 in 6.2 mi South 6.9 mph - N/A   Scattered Clouds
1:30 AM 75.2 °F - 69.8 °F 83% 29.89 in 6.2 mi South 6.9 mph - N/A   Unknown
2:00 AM 75.2 °F - 68.0 °F 78% 29.89 in 6.2 mi South 8.1 mph - N/A   Partly Cloudy
2:30 AM 73.4 °F - 69.8 °F 88% 29.86 in 6.2 mi SE 5.8 mph - N/A   Partly Cloudy
3:00 AM 73 °F - 69 °F 85% 29.88 in - SSE 8.1 mph - -  
3:00 AM 73.4 °F - 69.8 °F 88% 29.89 in 6.2 mi SSE 8.1 mph - N/A   Partly Cloudy
3:30 AM 75.2 °F - 68.0 °F 78% 29.89 in 6.2 mi South 5.8 mph - N/A   Partly Cloudy
4:00 AM 74 °F - 68 °F 75% 29.89 in - SSE 5.8 mph - -  
4:00 AM 73.4 °F - 68.0 °F 83% 29.89 in 6.2 mi SSE 5.8 mph - N/A   Partly Cloudy
4:30 AM 75.2 °F - 68.0 °F 78% 29.89 in 6.2 mi South 8.1 mph - N/A   Partly Cloudy
5:00 AM 73.4 °F - 68.0 °F 83% 29.89 in 6.2 mi SE 9.2 mph - N/A   Partly Cloudy
5:30 AM 71.6 °F - 68.0 °F 88% 29.89 in 6.2 mi SE 9.2 mph - N/A   Partly Cloudy
6:00 AM 73 °F - 68 °F 78% 29.92 in 19 mi SE 3.5 mph - -   Partly Cloudy
6:00 AM 73.4 °F - 68.0 °F 83% 29.92 in 6.2 mi SE 3.5 mph - N/A   Partly Cloudy
6:30 AM 75.2 °F - 68.0 °F 78% 29.92 in 6.2 mi South 8.1 mph - N/A   Partly Cloudy
7:00 AM 78 °F - 67 °F 61% 29.94 in - South 8.1 mph - -  
7:00 AM 78.8 °F - 66.2 °F 65% 29.92 in 6.2 mi South 8.1 mph - N/A   Partly Cloudy
7:30 AM 78.8 °F - 68.0 °F 69% 29.95 in 6.2 mi South 9.2 mph - N/A   Partly Cloudy
8:00 AM 78.8 °F - 68.0 °F 69% 29.95 in 6.2 mi South 10.4 mph - N/A   Partly Cloudy
8:30 AM 82.4 °F 85.4 °F 68.0 °F 62% 29.95 in 6.2 mi South 11.5 mph - N/A   Partly Cloudy
9:00 AM 83 °F - 67 °F 50% 29.96 in 19 mi SSE 10.4 mph - -   Partly Cloudy
9:00 AM 84.2 °F 87.3 °F 68.0 °F 58% 29.95 in 6.2 mi SSE 10.4 mph - N/A   Partly Cloudy
9:30 AM 86.0 °F 87.3 °F 64.4 °F 48% 29.95 in 6.2 mi SE 13.8 mph - N/A   Partly Cloudy
10:00 AM 86 °F - 65 °F 39% 29.96 in - SE 13.8 mph - -  
10:00 AM 86.0 °F 87.3 °F 64.4 °F 48% 29.95 in 6.2 mi SE 13.8 mph - N/A   Partly Cloudy
10:30 AM 86.0 °F 87.3 °F 64.4 °F 48% 29.95 in 6.2 mi SE 13.8 mph - N/A   Partly Cloudy
11:00 AM 87.8 °F 88.5 °F 62.6 °F 43% 29.92 in 6.2 mi SE 12.7 mph - N/A   Partly Cloudy
11:30 AM 86.0 °F 86.1 °F 60.8 °F 43% 29.92 in 6.2 mi ESE 11.5 mph - N/A   Partly Cloudy
12:00 PM 86 °F - 63 °F 35% 29.92 in 19 mi ESE 13.8 mph - -   Partly Cloudy
12:00 PM 86.0 °F 86.6 °F 62.6 °F 45% 29.92 in 6.2 mi ESE 13.8 mph - N/A   Mostly Cloudy
12:30 PM 89.6 °F 90.1 °F 62.6 °F 40% 29.92 in 6.2 mi ESE 11.5 mph - N/A   Mostly Cloudy
1:00 PM 88 °F - 64 °F 35% 29.91 in - ESE 12.7 mph - -  
1:00 PM 87.8 °F 89.4 °F 64.4 °F 46% 29.89 in 6.2 mi ESE 12.7 mph - N/A   Mostly Cloudy
1:30 PM 89.6 °F 91.1 °F 64.4 °F 43% 29.89 in 6.2 mi East 15.0 mph - N/A   Mostly Cloudy
2:00 PM 87.8 °F 89.4 °F 64.4 °F 46% 29.89 in 6.2 mi East 15.0 mph - N/A   Mostly Cloudy
2:30 PM 87.8 °F 90.4 °F 66.2 °F 49% 29.86 in 6.2 mi East 15.0 mph - N/A   Scattered Clouds
3:00 PM 87.8 °F 89.4 °F 64.4 °F 46% 29.86 in 6.2 mi East 13.8 mph - N/A   Scattered Clouds
3:30 PM 87.8 °F 88.5 °F 62.6 °F 43% 29.86 in 6.2 mi East 15.0 mph - N/A   Scattered Clouds
4:00 PM 86 °F - 64 °F 38% 29.89 in - East 16.1 mph - -  
4:00 PM 86.0 °F 87.3 °F 64.4 °F 48% 29.86 in 6.2 mi East 16.1 mph - N/A   Scattered Clouds
4:30 PM 86.0 °F 87.3 °F 64.4 °F 48% 29.89 in 6.2 mi ESE 12.7 mph - N/A   Scattered Clouds
5:00 PM 84.2 °F 86.6 °F 66.2 °F 55% 29.89 in 6.2 mi SE 15.0 mph - N/A   Partly Cloudy
5:30 PM 82.4 °F 85.4 °F 68.0 °F 62% 29.89 in 6.2 mi SE 17.3 mph - N/A   Partly Cloudy
6:00 PM 81 °F - 66 °F 51% 29.92 in - SE 16.1 mph - -  
6:00 PM 80.6 °F 82.7 °F 66.2 °F 61% 29.92 in 6.2 mi SE 16.1 mph - N/A   Partly Cloudy
6:30 PM 78.8 °F - 68.0 °F 69% 29.92 in 6.2 mi SE 10.4 mph - N/A   Partly Cloudy
7:00 PM 79 °F - 69 °F 64% 29.95 in - SSE 8.1 mph - -  
7:00 PM 78.8 °F - 69.8 °F 74% 29.92 in 6.2 mi SSE 8.1 mph - N/A   Partly Cloudy
7:30 PM 78.8 °F - 69.8 °F 74% 29.95 in 6.2 mi South 5.8 mph - N/A   Partly Cloudy
8:00 PM 78.8 °F - 69.8 °F 74% 29.95 in 6.2 mi SSE 9.2 mph - N/A   Partly Cloudy
8:30 PM 78.8 °F - 69.8 °F 74% 29.95 in 6.2 mi South 10.4 mph - N/A   Partly Cloudy
9:00 PM 77 °F - 69 °F 71% 29.97 in - South 8.1 mph - -  
9:00 PM 77.0 °F - 69.8 °F 78% 29.98 in 6.2 mi South 8.1 mph - N/A   Partly Cloudy
9:30 PM 77.0 °F - 69.8 °F 78% 29.98 in 6.2 mi South 8.1 mph - N/A   Partly Cloudy
10:00 PM 77 °F - 70 °F 73% 29.99 in - South 8.1 mph - -  
10:00 PM 77.0 °F - 69.8 °F 78% 29.98 in 6.2 mi South 8.1 mph - N/A   Partly Cloudy
10:30 PM 77.0 °F - 69.8 °F 78% 29.98 in 6.2 mi South 8.1 mph - N/A   Partly Cloudy
11:00 PM 77.0 °F - 71.6 °F 83% 29.98 in 6.2 mi South 9.2 mph - N/A   Partly Cloudy
11:30 PM 77.0 °F - 71.6 °F 83% 29.98 in 6.2 mi South 9.2 mph - N/A   Partly Cloudy